�������l�o���
Date,Time,MP-1(��Sv/h),MP-2(��Sv/h),MP-3(��Sv/h),MP-4(��Sv/h),MP-5(��Sv/h),MP-6(��Sv/h),MP-7(��Sv/h),MP-8(��Sv/h),����,����(m/s),���J
2023/08/03,00:00,0.542,0.819,0.500,0.996,0.731,0.325,0.576,0.536,��쐼,4.3,��
2023/08/03,00:10,0.540,0.821,0.500,0.997,0.732,0.325,0.575,0.536,��쐼,5.6,��
2023/08/03,00:20,0.543,0.819,0.502,0.996,0.732,0.326,0.575,0.535,��,3.9,��
2023/08/03,00:30,0.541,0.819,0.500,0.997,0.732,0.326,0.576,0.535,��쐼,4.2,��
2023/08/03,00:40,0.542,0.820,0.502,0.998,0.732,0.327,0.576,0.536,��쐼,4.8,��
2023/08/03,00:50,0.542,0.819,0.499,0.997,0.732,0.325,0.575,0.535,��쐼,3.5,��
2023/08/03,01:00,0.542,0.819,0.500,0.997,0.732,0.326,0.576,0.533,��쐼,3.9,��
2023/08/03,01:10,0.542,0.819,0.500,0.995,0.733,0.325,0.575,0.534,��쐼,4.6,��
2023/08/03,01:20,0.541,0.819,0.499,0.998,0.730,0.325,0.575,0.535,��쐼,4.9,��
2023/08/03,01:30,0.543,0.820,0.501,0.997,0.732,0.324,0.574,0.536,��쐼,4.7,��
2023/08/03,01:40,0.543,0.820,0.500,0.998,0.732,0.325,0.575,0.534,��쐼,4.8,��
2023/08/03,01:50,0.543,0.820,0.500,0.996,0.732,0.325,0.575,0.536,��쐼,3.9,��
2023/08/03,02:00,0.543,0.819,0.500,0.995,0.732,0.325,0.574,0.535,��쐼,3.6,��
2023/08/03,02:10,0.543,0.819,0.502,0.998,0.730,0.324,0.574,0.535,�쐼,2.8,��
2023/08/03,02:20,0.541,0.820,0.500,0.998,0.732,0.324,0.575,0.535,��쐼,3.1,��
2023/08/03,02:30,0.542,0.819,0.500,0.999,0.733,0.325,0.576,0.535,��,3.0,��
2023/08/03,02:40,0.541,0.821,0.500,0.998,0.731,0.325,0.575,0.534,��,3.2,��
2023/08/03,02:50,0.541,0.820,0.501,0.998,0.732,0.325,0.577,0.536,��쐼,2.6,��
2023/08/03,03:00,0.541,0.819,0.500,0.997,0.733,0.325,0.576,0.535,��쐼,3.1,��
2023/08/03,03:10,0.541,0.819,0.500,0.998,0.734,0.325,0.575,0.534,��쐼,3.7,��
2023/08/03,03:20,0.542,0.820,0.501,0.998,0.733,0.323,0.574,0.536,��쐼,2.5,��
2023/08/03,03:30,0.542,0.817,0.501,0.998,0.732,0.325,0.576,0.535,��,2.8,��
2023/08/03,03:40,0.542,0.819,0.500,1.000,0.732,0.325,0.575,0.535,��쐼,2.2,��
2023/08/03,03:50,0.542,0.818,0.501,0.998,0.732,0.324,0.576,0.535,��,2.3,��
2023/08/03,04:00,0.544,0.821,0.502,0.997,0.733,0.325,0.575,0.536,��쐼,1.7,��
2023/08/03,04:10,0.541,0.821,0.501,0.998,0.733,0.325,0.575,0.535,�쐼,0.9,��
2023/08/03,04:20,0.542,0.821,0.501,0.997,0.732,0.324,0.576,0.536,���쐼,0.6,��
2023/08/03,04:30,0.541,0.820,0.500,0.997,0.732,0.324,0.576,0.535,�쐼,1.2,��
2023/08/03,04:40,0.543,0.820,0.500,1.000,0.732,0.325,0.576,0.536,�쐼,2.0,��
2023/08/03,04:50,0.543,0.820,0.500,0.998,0.735,0.325,0.576,0.535,��쐼,2.6,��
2023/08/03,05:00,0.541,0.820,0.501,0.999,0.731,0.326,0.575,0.537,��쐼,2.6,��
2023/08/03,05:10,0.544,0.821,0.502,1.000,0.733,0.325,0.576,0.535,��쐼,2.6,��
2023/08/03,05:20,0.543,0.822,0.502,1.000,0.733,0.325,0.575,0.536,��,3.1,��
2023/08/03,05:30,0.544,0.820,0.501,0.999,0.732,0.325,0.577,0.534,��,3.5,��
2023/08/03,05:40,0.542,0.820,0.503,1.001,0.734,0.325,0.577,0.537,��,3.6,��
2023/08/03,05:50,0.541,0.820,0.501,1.000,0.732,0.326,0.576,0.535,��,4.2,��
2023/08/03,06:00,0.542,0.820,0.501,1.000,0.733,0.326,0.577,0.537,��,4.2,��
2023/08/03,06:10,0.544,0.820,0.500,1.000,0.732,0.326,0.577,0.536,��,4.9,��
2023/08/03,06:20,0.543,0.818,0.502,1.000,0.735,0.325,0.577,0.536,��쓌,3.5,��
2023/08/03,06:30,0.543,0.822,0.501,0.999,0.731,0.325,0.576,0.536,��,4.0,��
2023/08/03,06:40,0.543,0.821,0.500,1.001,0.733,0.326,0.577,0.536,��,5.7,��
2023/08/03,06:50,0.541,0.822,0.501,0.999,0.733,0.325,0.577,0.535,��쓌,5.5,��
2023/08/03,07:00,0.544,0.820,0.499,0.998,0.732,0.324,0.576,0.535,��,4.6,�L
2023/08/03,07:10,0.542,0.818,0.499,0.998,0.731,0.325,0.576,0.535,��,3.9,��
2023/08/03,07:20,0.541,0.819,0.500,0.996,0.729,0.324,0.577,0.535,��쓌,2.6,��
2023/08/03,07:30,0.542,0.820,0.500,0.999,0.730,0.325,0.577,0.535,��,2.6,��
2023/08/03,07:40,0.539,0.820,0.500,1.000,0.731,0.324,0.577,0.536,��,3.9,��
2023/08/03,07:50,0.541,0.818,0.498,0.997,0.731,0.325,0.578,0.536,��,4.3,��
2023/08/03,08:00,0.539,0.819,0.499,0.998,0.731,0.324,0.576,0.536,��,5.6,��
2023/08/03,08:10,0.541,0.820,0.500,0.999,0.732,0.325,0.576,0.535,��,5.4,��
2023/08/03,08:20,0.541,0.820,0.500,0.998,0.732,0.324,0.576,0.536,��,4.6,��
2023/08/03,08:30,0.542,0.820,0.499,0.998,0.730,0.323,0.577,0.536,��,4.2,��
2023/08/03,08:40,0.542,0.818,0.500,0.999,0.732,0.325,0.575,0.535,��,3.8,��
2023/08/03,08:50,0.541,0.821,0.500,0.998,0.730,0.324,0.575,0.535,��쓌,5.9,��
2023/08/03,09:00,0.541,0.819,0.498,0.998,0.731,0.324,0.578,0.533,��쓌,6.4,��
2023/08/03,09:10,0.541,0.816,0.500,0.998,0.733,0.320,0.579,0.534,��,6.5,��
2023/08/03,09:20,0.544,0.820,0.499,0.999,0.724,0.324,0.578,0.535,��,4.1,��
2023/08/03,09:30,0.545,0.820,0.501,0.998,0.727,0.324,0.579,0.534,��,3.9,��
2023/08/03,09:40,0.542,0.819,0.500,0.998,0.734,0.324,0.578,0.534,��,2.8,��
2023/08/03,09:50,0.546,0.821,0.501,0.999,0.733,0.325,0.579,0.535,��쓌,2.0,��
2023/08/03,10:00,0.542,0.822,0.499,0.999,0.732,0.325,0.576,0.535,��쓌,6.2,��
2023/08/03,10:10,0.541,0.821,0.502,0.997,0.734,0.324,0.575,0.535,��쓌,10.5,��
2023/08/03,10:20,0.543,0.820,0.500,0.998,0.734,0.325,0.577,0.535,��쓌,9.3,��
2023/08/03,10:30,0.544,0.819,0.501,1.001,0.737,0.324,0.576,0.534,��쓌,9.2,��
2023/08/03,10:40,0.544,0.821,0.498,1.000,0.736,0.325,0.575,0.536,��쓌,9.4,��
2023/08/03,10:50,0.545,0.819,0.501,1.000,0.738,0.325,0.576,0.534,��,8.6,��
2023/08/03,11:00,0.542,0.821,0.502,1.001,0.737,0.325,0.577,0.535,��쓌,8.7,��
2023/08/03,11:10,0.542,0.820,0.503,1.000,0.737,0.324,0.576,0.535,��,7.1,��
2023/08/03,11:20,0.542,0.822,0.501,0.998,0.738,0.324,0.577,0.536,��쓌,7.9,��
2023/08/03,11:30,0.542,0.822,0.503,0.998,0.737,0.323,0.577,0.536,��쓌,7.8,��
2023/08/03,11:40,0.543,0.820,0.503,0.997,0.738,0.322,0.577,0.535,��쓌,11.3,��
2023/08/03,11:50,0.544,0.821,0.504,0.997,0.740,0.324,0.576,0.537,��,9.2,��
2023/08/03,12:00,0.543,0.826,0.501,1.001,0.737,0.324,0.576,0.536,��쓌,10.8,��
2023/08/03,12:10,0.543,0.824,0.502,0.999,0.737,0.324,0.576,0.536,��,9.7,��
2023/08/03,12:20,0.544,0.826,0.502,1.000,0.737,0.325,0.576,0.538,��쓌,11.3,��
2023/08/03,12:30,0.544,0.826,0.504,1.001,0.737,0.324,0.577,0.538,��쓌,11.7,��
2023/08/03,12:40,0.544,0.825,0.502,0.999,0.738,0.325,0.576,0.537,��쓌,9.9,��
2023/08/03,12:50,0.544,0.827,0.503,1.001,0.737,0.325,0.578,0.537,��,11.4,��
2023/08/03,13:00,0.544,0.826,0.503,1.002,0.739,0.324,0.577,0.536,��쓌,9.8,��
2023/08/03,13:10,0.544,0.825,0.503,1.000,0.738,0.325,0.579,0.538,��,9.1,��
2023/08/03,13:20,0.546,0.826,0.502,0.999,0.739,0.325,0.579,0.539,��쓌,10.5,��
2023/08/03,13:30,0.545,0.827,0.505,1.001,0.739,0.325,0.579,0.536,��,10.3,��
2023/08/03,13:40,0.543,0.826,0.504,1.004,0.741,0.326,0.580,0.539,��,11.1,��
2023/08/03,13:50,0.545,0.826,0.502,1.003,0.740,0.324,0.579,0.538,��,9.8,��
2023/08/03,14:00,0.546,0.825,0.502,1.004,0.740,0.325,0.578,0.537,��,10.3,��
2023/08/03,14:10,0.545,0.826,0.504,1.003,0.742,0.326,0.579,0.536,��,12.2,��
2023/08/03,14:20,0.544,0.826,0.503,1.001,0.742,0.325,0.578,0.538,��쓌,11.3,��
2023/08/03,14:30,0.544,0.826,0.503,1.002,0.741,0.326,0.578,0.536,��쓌,11.4,��
2023/08/03,14:40,0.546,0.825,0.506,1.003,0.742,0.326,0.577,0.537,��,7.6,��
2023/08/03,14:50,0.546,0.830,0.505,1.000,0.741,0.327,0.579,0.537,��,9.1,��
2023/08/03,15:00,0.546,0.827,0.505,1.001,0.743,0.327,0.579,0.538,��,6.7,��
2023/08/03,15:10,0.546,0.826,0.505,1.003,0.742,0.327,0.578,0.537,��,8.0,��
2023/08/03,15:20,0.545,0.828,0.505,1.003,0.742,0.325,0.578,0.536,��,7.2,��
2023/08/03,15:30,0.544,0.828,0.505,1.003,0.742,0.326,0.579,0.536,��,8.0,��
2023/08/03,15:40,0.545,0.825,0.504,1.005,0.741,0.325,0.579,0.536,��,8.3,��
2023/08/03,15:50,0.545,0.828,0.504,1.007,0.739,0.327,0.578,0.537,��,7.1,��
2023/08/03,16:00,0.547,0.826,0.502,1.004,0.741,0.326,0.576,0.537,��,6.6,��
2023/08/03,16:10,0.545,0.828,0.502,1.003,0.739,0.326,0.577,0.535,��,7.5,��
2023/08/03,16:20,0.544,0.828,0.504,1.003,0.741,0.326,0.576,0.536,��,8.2,��
2023/08/03,16:30,0.545,0.827,0.502,1.003,0.740,0.326,0.578,0.535,��,7.2,��
2023/08/03,16:40,0.546,0.825,0.504,1.004,0.739,0.325,0.575,0.535,��쐼,4.2,��
2023/08/03,16:50,0.546,0.826,0.502,1.004,0.740,0.326,0.576,0.536,��쐼,3.8,��
2023/08/03,17:00,0.545,0.827,0.503,1.004,0.741,0.325,0.577,0.536,�쐼,2.2,��
2023/08/03,17:10,0.547,0.826,0.504,1.006,0.741,0.325,0.577,0.537,�쐼,2.9,��
2023/08/03,17:20,0.547,0.827,0.503,1.005,0.742,0.326,0.576,0.536,��쐼,1.5,��
2023/08/03,17:30,0.549,0.828,0.504,1.002,0.741,0.325,0.577,0.537,���쐼,0.9,��
2023/08/03,17:40,0.547,0.827,0.501,1.003,0.742,0.325,0.577,0.537,��,0.9,��
2023/08/03,17:50,0.545,0.827,0.502,1.007,0.740,0.327,0.576,0.538,���쐼,0.6,��
2023/08/03,18:00,0.547,0.827,0.502,1.006,0.741,0.325,0.578,0.537,���k��,1.1,��
2023/08/03,18:10,0.547,0.826,0.502,1.006,0.741,0.327,0.577,0.536,���쐼,0.8,��
2023/08/03,18:20,0.548,0.828,0.504,1.004,0.742,0.326,0.578,0.536,�쐼,1.1,��
2023/08/03,18:30,0.548,0.826,0.503,1.005,0.739,0.325,0.578,0.537,��쐼,0.9,��
2023/08/03,18:40,0.548,0.828,0.505,1.003,0.739,0.326,0.575,0.536,��,1.4,��
2023/08/03,18:50,0.546,0.826,0.501,1.006,0.739,0.324,0.578,0.536,��,2.5,��
2023/08/03,19:00,0.548,0.828,0.505,1.007,0.741,0.326,0.578,0.536,��,3.0,��
2023/08/03,19:10,0.547,0.827,0.503,1.001,0.739,0.327,0.577,0.537,��쓌,3.3,��
2023/08/03,19:20,0.547,0.829,0.503,1.006,0.742,0.327,0.577,0.537,��쓌,3.4,��
2023/08/03,19:30,0.548,0.828,0.504,1.005,0.740,0.328,0.577,0.535,��,2.6,��
2023/08/03,19:40,0.545,0.828,0.503,1.007,0.741,0.327,0.577,0.537,��쐼,2.0,��
2023/08/03,19:50,0.547,0.827,0.505,1.004,0.740,0.326,0.578,0.537,��쐼,1.5,��
2023/08/03,20:00,0.549,0.827,0.505,1.005,0.741,0.327,0.578,0.537,��쐼,1.5,��
2023/08/03,20:10,0.547,0.827,0.504,1.004,0.741,0.328,0.578,0.537,�쐼,1.5,��
2023/08/03,20:20,0.548,0.829,0.504,1.004,0.743,0.328,0.577,0.537,�쐼,1.7,��
2023/08/03,20:30,0.547,0.829,0.504,1.007,0.741,0.327,0.578,0.537,��,1.2,��
2023/08/03,20:40,0.547,0.829,0.504,1.006,0.741,0.329,0.577,0.538,��쓌,1.4,��
2023/08/03,20:50,0.548,0.828,0.505,1.003,0.742,0.327,0.578,0.537,��,1.5,��
2023/08/03,21:00,0.547,0.829,0.506,1.005,0.742,0.328,0.577,0.536,��,2.8,��
2023/08/03,21:10,0.548,0.828,0.505,1.004,0.741,0.327,0.577,0.537,��,3.9,��
2023/08/03,21:20,0.549,0.828,0.503,1.007,0.742,0.328,0.578,0.537,��,4.6,��
2023/08/03,21:30,0.548,0.828,0.502,1.006,0.741,0.327,0.578,0.537,��쐼,4.7,��
2023/08/03,21:40,0.548,0.828,0.503,1.006,0.742,0.326,0.578,0.537,��쐼,4.2,��
2023/08/03,21:50,0.547,0.827,0.505,1.005,0.743,0.328,0.577,0.537,��쐼,3.8,��
2023/08/03,22:00,0.545,0.827,0.503,1.009,0.742,0.329,0.578,0.535,��,3.8,��
2023/08/03,22:10,0.546,0.829,0.504,1.008,0.741,0.326,0.578,0.538,��쐼,2.9,��
2023/08/03,22:20,0.548,0.828,0.505,1.007,0.741,0.327,0.579,0.535,��쐼,2.5,��
2023/08/03,22:30,0.545,0.829,0.506,1.010,0.741,0.327,0.578,0.536,�쐼,2.6,��
2023/08/03,22:40,0.547,0.829,0.505,1.008,0.742,0.327,0.578,0.537,���쐼,2.0,��
2023/08/03,22:50,0.548,0.828,0.504,1.010,0.741,0.328,0.577,0.537,�쐼,1.5,��
2023/08/03,23:00,0.546,0.828,0.504,1.005,0.744,0.328,0.577,0.537,�쐼,1.9,��
2023/08/03,23:10,0.547,0.826,0.505,1.007,0.741,0.326,0.578,0.538,��쐼,1.7,��
2023/08/03,23:20,0.548,0.828,0.504,1.007,0.740,0.327,0.579,0.537,��쐼,1.9,��
2023/08/03,23:30,0.547,0.828,0.505,1.007,0.742,0.328,0.579,0.538,��쐼,1.7,��
2023/08/03,23:40,0.546,0.829,0.504,1.005,0.740,0.327,0.578,0.537,��쐼,1.5,��
2023/08/03,23:50,0.547,0.829,0.505,1.007,0.741,0.328,0.579,0.537,�쐼,2.8,��
